GSAT0207 (GALILEO 15)

Last updated on Sat Sep 05 2026 00:02:48 GMT+0000 (Coordinated Universal Time)

1 41859U 16069A 26246.93472237 .00000013 00000+0 00000+0 0 9998 2 41859 55.5476 98.9057 0003228 357.5387 2.5448 1.70473656 60741
UTC large
Height (km)
Speed (km/s)
/
Latitude / Longitude
Inclination (degrees)
Orbital Period (minutes)
Azimuth
Elevation
Range (km)
Doppler Factor

Next 0 passes for location: London (51.5072 / 0.1276)

No passes found over London.
GSAT0207 (GALILEO 15)